Change the Weather History Date:

Saturday, May 26, 2012

  Actual Average Record
Temperature  
Mean Temperature 81 °F 67 °F  
Max Temperature 92 °F 77 °F 93 °F (1953)
Min Temperature 70 °F 57 °F 38 °F (1901)
Degree Days  
Heating Degree Days 0 2  
Month to date heating degree days 14 101  
Since 1 July heating degree days 3768 5004  
Cooling Degree Days 16 4  
Month to date cooling degree days 150 57  
Year to date cooling degree days 237 82  
Growing Degree Days 30 (Base 50)    
Moisture  
Dew Point 69 °F    
Average Humidity 66    
Maximum Humidity 84    
Minimum Humidity 47    
Precipitation  
Precipitation 0.00 in 0.15 in 2.96 in (2000)
Month to date precipitation 1.16 4.20  
Year to date precipitation 16.94 15.77  
Snow  
Snow 0.00 in 0.00 in 0.00 in (2012)
Month to date snowfall 0.0 0.0  
Since 1 July snowfall 6.6 18.0  
Snow Depth 0.00 in    
Sea Level Pressure  
Sea Level Pressure 29.96 in    
Wind  
Wind Speed 9 mph (SSE)    
Max Wind Speed 16 mph    
Max Gust Speed 21 mph    
Visibility 10 miles    
Events      
T = Trace of Precipitation, MM = Missing Value Source: NWS Daily Summary

Daily Weather History Graph

Daily Weather History Graph

Search for Another Location

Airport or City:

Trip Planner

Search our weather history database for the weather conditions in past years. The results will help you decide how hot, cold, wet, or windy it might be!

Date:

Astronomy

May. 26, 2012 Rise Set
Actual Time 5:48 AM CDT 8:24 PM CDT
Civil Twilight 5:17 AM CDT 8:55 PM CDT
Nautical Twilight 4:38 AM CDT 9:33 PM CDT
Astronomical Twilight 3:55 AM CDT 10:17 PM CDT
Moon 10:48 AM CDT (5/26) 12:00 AM CDT (5/26)
Length of Visible Light 15h 37m
Length of Day
14h 35m
Waxing Crescent, 28% of the Moon is Illuminated
May 26
Waxing Crescent
May 28
First Quarter
Jun 4
Full
Jun 11
Last Quarter
Jun 19
New

Hourly Weather History & Observations

Time (CDT) Temp. Heat Index Dew Point Humidity Pressure Visibility Wind Dir Wind Speed Gust Speed Precip Events Conditions
12:54 AM 73.9 °F - 66.0 °F 76% 29.97 in 10.0 mi SE 5.8 mph - N/A   Clear
1:54 AM 73.4 °F - 66.2 °F 78% 29.99 in 10.0 mi SE 5.8 mph - N/A   Clear
2:54 AM 73.0 °F - 64.9 °F 76% 29.96 in 10.0 mi SSE 8.1 mph - N/A   Clear
3:54 AM 72.0 °F - 64.9 °F 78% 29.95 in 10.0 mi SSE 9.2 mph - N/A   Clear
4:54 AM 71.1 °F - 64.9 °F 81% 29.96 in 10.0 mi SSE 6.9 mph - N/A   Clear
5:54 AM 70.0 °F - 64.9 °F 84% 29.96 in 10.0 mi SSE 8.1 mph - N/A   Clear
6:54 AM 72.0 °F - 66.0 °F 81% 29.98 in 10.0 mi SSE 6.9 mph - N/A   Clear
7:54 AM 75.0 °F - 66.9 °F 76% 30.01 in 10.0 mi SSE 8.1 mph - N/A   Clear
8:54 AM 78.1 °F - 69.1 °F 74% 30.01 in 10.0 mi SSE 10.4 mph - N/A   Clear
9:54 AM 82.0 °F 85.9 °F 70.0 °F 67% 30.02 in 10.0 mi SSE 11.5 mph - N/A   Clear
10:54 AM 84.0 °F 88.4 °F 70.0 °F 63% 30.01 in 10.0 mi SSE 12.7 mph - N/A   Clear
11:54 AM 87.1 °F 92.8 °F 71.1 °F 59% 30.00 in 10.0 mi SE 11.5 mph - N/A   Clear
12:54 PM 88.0 °F 93.8 °F 71.1 °F 57% 29.99 in 10.0 mi South 12.7 mph - N/A   Mostly Cloudy
1:54 PM 90.0 °F 96.4 °F 71.1 °F 54% 29.96 in 10.0 mi SSE 15.0 mph 19.6 mph N/A   Partly Cloudy
2:54 PM 91.9 °F 96.9 °F 69.1 °F 47% 29.95 in 10.0 mi South 10.4 mph - N/A   Clear
3:54 PM 91.9 °F 97.4 °F 70.0 °F 48% 29.93 in 10.0 mi South 10.4 mph - N/A   Clear
4:54 PM 90.0 °F 95.4 °F 70.0 °F 52% 29.92 in 10.0 mi SSW 9.2 mph - N/A   Clear
5:54 PM 91.0 °F 95.2 °F 68.0 °F 47% 29.92 in 10.0 mi SSW 12.7 mph - N/A   Clear
6:54 PM 89.1 °F 95.0 °F 71.1 °F 55% 29.91 in 10.0 mi South 5.8 mph - N/A   Clear
7:54 PM 84.9 °F 90.1 °F 71.1 °F 63% 29.91 in 10.0 mi SSW 3.5 mph - N/A   Clear
8:54 PM 82.0 °F 86.7 °F 72.0 °F 71% 29.91 in 10.0 mi SSE 3.5 mph - N/A   Clear
9:54 PM 80.1 °F 83.8 °F 72.0 °F 76% 29.92 in 10.0 mi SSE 5.8 mph - N/A   Clear
10:54 PM 78.1 °F - 71.1 °F 79% 29.93 in 10.0 mi SE 6.9 mph - N/A   Unknown
11:54 PM 77.0 °F - 68.0 °F 74% 29.92 in 10.0 mi South 8.1 mph - N/A   Clear